• Join FlightAware (Why Join?)
  • Login
  • US Flag GB Flag 
04:35 EDT


 

Airport Tracker/Info


-or-


 

Live Flight TrackerFlight Track Log ✈ AAL963 ✈ 02-May-2013 ✈ KDFW - SBGR / GRU

Flight Track Log - Related Links

Times and Time Zones

All times are in EDT time to prevent confusion due to time zone crossing. See the AAL963 flight status page for this flight to view local times or setup timezone preferences in your user account.

Time Position Orientation Groundspeed Altitude Reporting Facility
EDT Latitude Longitude Course Direction KTS MPH feet Rate Location/Type
21:26 32.9210 -97.0510 354° North 151 174 1,900  Level FlightAware
21:26 32.9390 -97.0550 349° North 178 205 2,300 1,260 Climbing FlightAware
21:27 32.9650 -97.0630 346° North 202 232 3,100 1,800 Climbing FlightAware
21:27 32.9890 -97.0710 344° North 211 243 4,000 2,400 Climbing FlightAware
21:28 33.0150 -97.0820 340° North 215 247 5,300 2,100 Climbing FlightAware
21:28 33.0280 -97.0970 316° Northwest 242 278 5,600 1,560 Climbing FlightAware
21:28 33.0340 -97.1150 292° West 253 291 6,100 1,920 Climbing FlightAware
21:28 33.0350 -97.1250 277° West 255 293 6,400 2,100 Climbing FlightAware
21:29 33.0300 -97.1710 263° West 270 311 7,500 2,280 Climbing FlightAware
21:29 33.0150 -97.2110 246° West 275 316 8,700 2,160 Climbing FlightAware
21:30 33.0020 -97.2460 246° West 277 319 9,500 1,080 Climbing FlightAware
21:30 32.9860 -97.2880 246° West 303 349 9,700 900 Climbing FlightAware
21:30 32.9730 -97.3090 234° Southwest 310 357 10,200 1,620 Climbing FlightAware
21:31 32.9400 -97.3270 205° Southwest 330 380 10,800 1,260 Climbing FlightAware
21:32 32.8500 -97.3290 181° South 381 438 11,900 1,500 Climbing FlightAware
21:33 32.7790 -97.2800 150° Southeast 402 463 13,300 1,920 Climbing FlightAware
21:33 32.7090 -97.2440 157° South 411 473 14,700 2,160 Climbing FlightAware
21:34 32.6390 -97.2050 155° Southeast 419 482 16,200 2,100 Climbing FlightAware
21:35 32.5420 -97.1490 154° Southeast 428 493 18,100 1,860 Climbing FlightAware
21:35 32.4740 -97.1100 154° Southeast 439 505 19,200 1,800 Climbing FlightAware
21:36 32.3780 -97.0570 155° Southeast 448 516 20,800 1,800 Climbing FlightAware
21:37 32.3120 -97.0200 155° Southeast 454 522 21,800 1,680 Climbing FlightAware
21:38 32.2350 -96.9770 155° Southeast 461 531 22,900 1,800 Climbing FlightAware
21:38 32.1904 -96.9514 154° Southeast 457 526 23,600 1,800 Climbing FlightAware ADS-B
21:38 32.1307 -96.9176 154° Southeast 467 537 24,400 1,440 Climbing FlightAware ADS-B
21:39 32.0709 -96.8841 155° Southeast 471 542 25,100 1,200 Climbing FlightAware ADS-B
21:39 32.0087 -96.8490 154° Southeast 478 550 25,700 1,140 Climbing FlightAware ADS-B
21:40 31.9480 -96.8150 155° Southeast 481 554 26,300 1,260 Climbing FlightAware ADS-B
21:40 31.8776 -96.7757 155° Southeast 481 554 27,100 1,200 Climbing FlightAware ADS-B
21:41 31.8106 -96.7392 155° Southeast 490 564 27,700 960 Climbing FlightAware ADS-B
21:41 31.7572 -96.7097 155° Southeast 495 570 28,100 1,020 Climbing FlightAware ADS-B
21:42 31.6794 -96.6663 155° Southeast 497 572 28,800 780 Climbing FlightAware ADS-B
21:43 31.6122 -96.6291 155° Southeast 498 573 29,000 180 Climbing FlightAware ADS-B
21:43 31.5492 -96.5936 154° Southeast 498 573 29,000  Level FlightAware ADS-B
21:44 31.4808 -96.5554 155° Southeast 499 574 29,000 240 Level FlightAware ADS-B
21:44 31.4147 -96.5188 155° Southeast 501 577 29,300 720 Climbing FlightAware ADS-B
21:45 31.3489 -96.4825 155° Southeast 506 582 29,800 960 Climbing FlightAware ADS-B
21:45 31.2837 -96.4468 155° Southeast 509 586 30,300 1,260 Climbing FlightAware ADS-B
21:46 31.2186 -96.4110 155° Southeast 504 580 31,100 1,500 Climbing FlightAware ADS-B
21:46 31.2004 -96.3997 152° Southeast 506 582 31,300 1,080 Climbing FlightAware ADS-B
21:46 31.1758 -96.3800 146° Southeast 512 589 31,500 1,020 Climbing FlightAware ADS-B
21:46 31.1569 -96.3610 139° Southeast 515 593 31,700 1,260 Climbing FlightAware ADS-B
21:46 31.1368 -96.3356 133° Southeast 520 598 32,000 960 Climbing FlightAware ADS-B
21:47 31.1288 -96.3233 127° Southeast 522 601 32,000 1,020 Level FlightAware ADS-B
21:47 31.0862 -96.2541 126° Southeast 520 598 32,600 1,080 Climbing FlightAware ADS-B
21:48 31.0440 -96.1853 126° Southeast 520 598 33,100 960 Climbing FlightAware ADS-B
21:48 31.0019 -96.1165 126° Southeast 519 597 33,600 1,080 Climbing FlightAware ADS-B
21:49 30.9596 -96.0477 126° Southeast 515 593 34,200 1,200 Climbing FlightAware ADS-B
21:49 30.9182 -95.9806 126° Southeast 511 588 34,800 780 Climbing FlightAware ADS-B
21:50 30.8763 -95.9130 126° Southeast 514 592 35,000 180 Climbing FlightAware ADS-B
21:50 30.8335 -95.8442 126° Southeast 514 592 35,000  Level FlightAware ADS-B
21:51 30.7917 -95.7769 126° Southeast 513 590 35,000  Level FlightAware ADS-B
21:51 30.7496 -95.7094 126° Southeast 512 589 35,000  Level FlightAware ADS-B
21:52 30.7078 -95.6425 126° Southeast 511 588 35,000  Level FlightAware ADS-B
21:52 30.6663 -95.5759 126° Southeast 511 588 35,000  Level FlightAware ADS-B
21:53 30.6243 -95.5088 126° Southeast 509 586 35,000  Level FlightAware ADS-B
21:53 30.5821 -95.4414 126° Southeast 507 583 35,000  Level FlightAware ADS-B
21:54 30.5405 -95.3748 126° Southeast 505 581 35,000  Level FlightAware ADS-B
21:54 30.4987 -95.3085 126° Southeast 503 579 35,000  Level FlightAware ADS-B
21:55 30.4571 -95.2424 126° Southeast 502 578 35,000  Level FlightAware ADS-B
21:55 30.4150 -95.1757 126° Southeast 502 578 35,000  Level FlightAware ADS-B
21:56 30.3643 -95.0953 126° Southeast 504 580 35,000  Level FlightAware ADS-B
21:56 30.3211 -95.0271 126° Southeast 506 582 35,000  Level FlightAware ADS-B
21:57 30.2791 -94.9609 126° Southeast 508 585 35,000  Level FlightAware ADS-B
21:57 30.2365 -94.8938 126° Southeast 512 589 35,000  Level FlightAware ADS-B
21:58 30.1941 -94.8272 126° Southeast 512 589 35,000  Level FlightAware ADS-B
21:58 30.1513 -94.7600 126° Southeast 513 590 35,000  Level FlightAware ADS-B
21:59 30.1091 -94.6938 126° Southeast 514 592 35,000  Level FlightAware ADS-B
21:59 30.0662 -94.6268 126° Southeast 514 592 35,000  Level FlightAware ADS-B
22:00 30.0233 -94.5597 126° Southeast 514 592 35,000  Level FlightAware ADS-B
22:00 29.9800 -94.4922 127° Southeast 514 592 35,000  Level FlightAware ADS-B
22:01 29.9374 -94.4260 127° Southeast 514 592 35,000  Level FlightAware ADS-B
22:01 29.8950 -94.3601 127° Southeast 513 590 35,000  Level FlightAware ADS-B
22:02 29.8525 -94.2941 127° Southeast 512 589 35,000  Level FlightAware ADS-B
22:02 29.8097 -94.2278 127° Southeast 513 590 35,000  Level FlightAware ADS-B
22:03 29.7671 -94.1619 127° Southeast 513 590 35,000  Level FlightAware ADS-B
22:03 29.7243 -94.0959 127° Southeast 514 592 35,000  Level FlightAware ADS-B
22:04 29.6771 -94.0319 130° Southeast 509 586 35,000  Level FlightAware ADS-B
22:04 29.6481 -93.9999 136° Southeast 507 583 35,000  Level FlightAware ADS-B
22:05 29.6116 -93.9653 141° Southeast 504 580 35,000  Level FlightAware ADS-B
22:05 29.5521 -93.9150 144° Southeast 504 580 35,000  Level FlightAware ADS-B
22:06 29.4956 -93.8676 144° Southeast 504 580 35,000  Level FlightAware ADS-B
22:06 29.4379 -93.8194 144° Southeast 506 582 35,000  Level FlightAware ADS-B
22:07 29.3809 -93.7715 144° Southeast 506 582 35,000  Level FlightAware ADS-B
22:07 29.3231 -93.7228 144° Southeast 507 583 35,000  Level FlightAware ADS-B
22:08 29.2661 -93.6748 144° Southeast 509 586 35,000  Level FlightAware ADS-B
22:08 29.2089 -93.6268 144° Southeast 510 587 35,000  Level FlightAware ADS-B
22:09 29.1464 -93.5745 144° Southeast 511 588 35,000  Level FlightAware ADS-B
22:09 29.0879 -93.5256 144° Southeast 511 588 35,000  Level FlightAware ADS-B
22:10 29.0289 -93.4763 144° Southeast 512 589 35,000  Level FlightAware ADS-B
22:10 28.9703 -93.4275 144° Southeast 512 589 35,000  Level FlightAware ADS-B
22:11 28.9102 -93.3774 144° Southeast 512 589 35,000 -120 Level FlightAware ADS-B
22:11 28.8783 -93.3494 144° Southeast 511 588 34,900 -120 Descending Houston Center
22:12 28.7639 -93.2539 144° Southeast 510 587 34,900  Level Houston Center
22:13 28.6483 -93.1567 144° Southeast 516 594 34,900  Level Houston Center
22:14 28.5331 -93.0603 144° Southeast 516 594 35,000  Climbing Houston Center
22:15 28.4175 -92.9639 144° Southeast 515 593 34,900  Descending Houston Center
22:16 28.3014 -92.8692 144° Southeast 514 592 35,000  Climbing Houston Center
22:17 28.1867 -92.7717 143° Southeast 516 594 34,900  Descending Houston Center
22:18 28.0706 -92.6761 144° Southeast 515 593 35,000  Climbing Houston Center
22:19 27.9547 -92.5819 144° Southeast 513 590 35,000  Level Houston Center
22:20 27.8392 -92.4892 145° Southeast 511 588 35,000 -60 Level Houston Center
22:21 27.7006 -92.3756 144° Southeast 513 590 34,900 -60 Descending Houston Center
22:22 27.5856 -92.2778 143° Southeast 516 594 34,900  Level Houston Center
22:23 27.4675 -92.1858 145° Southeast 517 595 35,000  Climbing Houston Center
22:24 27.3494 -92.0919 145° Southeast 517 595 35,000 -60 Level Houston Center
22:25 27.2289 -92.0003 146° Southeast 520 598 34,900  Descending Houston Center
22:26 27.1094 -91.9067 145° Southeast 522 601 35,000  Climbing Houston Center
22:27 26.9889 -91.8125 145° Southeast 525 604 35,000  Level Houston Center
22:29 26.8682 -91.6915 145° Southeast  Level FlightAware Approximate
22:36 26.1107 -91.0944 145° Southeast  Level FlightAware Approximate
22:37 26.0025 -91.0094 145° Southeast  Level FlightAware Approximate
22:38 25.8943 -90.9244 145° Southeast  Level FlightAware Approximate
22:39 25.7861 -90.8397 145° Southeast  Level FlightAware Approximate
22:40 25.6777 -90.7551 145° Southeast  Level FlightAware Approximate
22:41 25.5694 -90.6706 145° Southeast  Level FlightAware Approximate
22:42 25.4597 -90.5884 148° Southeast  Level FlightAware Approximate
22:43 25.3478 -90.5101 148° Southeast  Level FlightAware Approximate
22:44 25.2399 -90.4252 144° Southeast  Level FlightAware Approximate
22:45 25.1323 -90.3399 145° Southeast  Level FlightAware Approximate
22:46 25.0241 -90.2556 145° Southeast  Level FlightAware Approximate
22:47 24.9158 -90.1715 145° Southeast  Level FlightAware Approximate
22:48 24.8075 -90.0875 145° Southeast  Level FlightAware Approximate
22:49 24.6992 -90.0036 145° Southeast  Level FlightAware Approximate
22:50 24.5910 -89.9201 145° Southeast  Level FlightAware Approximate
22:51 24.4844 -89.8344 138° Southeast  Level FlightAware Approximate
22:52 24.4130 -89.7122 123° Southeast  Level FlightAware Approximate
22:53 24.3417 -89.5900 123° Southeast  Level FlightAware Approximate
22:54 24.2704 -89.4678 123° Southeast  Level FlightAware Approximate
22:55 24.1990 -89.3458 123° Southeast  Level FlightAware Approximate
22:56 24.1274 -89.2240 123° Southeast  Level FlightAware Approximate
22:57 24.0558 -89.1023 123° Southeast  Level FlightAware Approximate
22:58 23.9841 -88.9807 123° Southeast  Level FlightAware Approximate
22:59 23.9123 -88.8592 122° Southeast  Level FlightAware Approximate
23:00 23.8413 -88.7373 122° Southeast  Level FlightAware Approximate
23:01 23.7701 -88.6155 123° Southeast  Level FlightAware Approximate
23:02 23.6989 -88.4939 123° Southeast  Level FlightAware Approximate
23:03 23.6275 -88.3724 123° Southeast  Level FlightAware Approximate
23:04 23.5561 -88.2510 123° Southeast  Level FlightAware Approximate
23:05 23.4845 -88.1298 123° Southeast  Level FlightAware Approximate
23:06 23.4129 -88.0087 123° Southeast  Level FlightAware Approximate
23:07 23.3412 -87.8877 123° Southeast  Level FlightAware Approximate
23:08 23.2693 -87.7668 123° Southeast  Level FlightAware Approximate
23:09 23.1974 -87.6461 123° Southeast  Level FlightAware Approximate
23:10 23.1254 -87.5255 123° Southeast  Level FlightAware Approximate
23:11 23.0533 -87.4051 123° Southeast  Level FlightAware Approximate
23:12 22.9811 -87.2847 123° Southeast  Level FlightAware Approximate
23:13 22.9089 -87.1645 123° Southeast  Level FlightAware Approximate
23:14 22.8365 -87.0445 123° Southeast  Level FlightAware Approximate
23:15 22.7640 -86.9245 123° Southeast  Level FlightAware Approximate
23:16 22.6915 -86.8047 123° Southeast  Level FlightAware Approximate
23:17 22.6189 -86.6850 123° Southeast  Level FlightAware Approximate
23:18 22.5460 -86.5652 123° Southeast  Level FlightAware Approximate
23:19 22.4731 -86.4456 123° Southeast  Level FlightAware Approximate
23:20 22.4000 -86.3260 123° Southeast  Level FlightAware Approximate
23:21 22.3269 -86.2066 123° Southeast  Level FlightAware Approximate
23:22 22.2537 -86.0874 124° Southeast  Level FlightAware Approximate
23:23 22.1808 -85.9679 123° Southeast  Level FlightAware Approximate
23:24 22.1089 -85.8479 123° Southeast  Level FlightAware Approximate
23:25 22.0370 -85.7279 123° Southeast  Level FlightAware Approximate
23:26 21.9649 -85.6081 123° Southeast  Level FlightAware Approximate
23:27 21.8919 -85.4890 124° Southeast  Level FlightAware Approximate
23:28 21.8186 -85.3701 124° Southeast  Level FlightAware Approximate
23:29 21.7452 -85.2514 124° Southeast  Level FlightAware Approximate
23:30 21.6717 -85.1328 124° Southeast  Level FlightAware Approximate
23:31 21.5982 -85.0144 124° Southeast  Level FlightAware Approximate
23:32 21.5245 -84.8960 124° Southeast  Level FlightAware Approximate
23:33 21.4508 -84.7778 124° Southeast  Level FlightAware Approximate
23:34 21.3770 -84.6597 124° Southeast  Level FlightAware Approximate
23:35 21.3031 -84.5417 124° Southeast  Level FlightAware Approximate
23:36 21.2291 -84.4238 124° Southeast  Level FlightAware Approximate
23:37 21.1550 -84.3061 124° Southeast  Level FlightAware Approximate
23:38 21.0809 -84.1884 124° Southeast  Level FlightAware Approximate
23:39 21.0067 -84.0709 124° Southeast  Level FlightAware Approximate
23:40 20.9324 -83.9535 124° Southeast  Level FlightAware Approximate
23:41 20.8580 -83.8363 124° Southeast  Level FlightAware Approximate
23:42 20.7835 -83.7191 124° Southeast  Level FlightAware Approximate
23:43 20.7090 -83.6020 124° Southeast  Level FlightAware Approximate
23:44 20.6344 -83.4851 124° Southeast  Level FlightAware Approximate
23:45 20.5597 -83.3683 124° Southeast  Level FlightAware Approximate
23:46 20.4849 -83.2516 124° Southeast  Level FlightAware Approximate
23:47 20.4100 -83.1350 124° Southeast  Level FlightAware Approximate
23:48 20.3351 -83.0185 124° Southeast  Level FlightAware Approximate
23:49 20.2602 -82.9024 124° Southeast  Level FlightAware Approximate
23:50 20.1853 -82.7863 125° Southeast  Level FlightAware Approximate
23:51 20.1056 -82.6832 125° Southeast  Level FlightAware Approximate
23:52 20.0300 -82.5677 125° Southeast  Level FlightAware Approximate
23:53 19.9542 -82.4524 125° Southeast  Level FlightAware Approximate
23:54 19.8784 -82.3372 125° Southeast  Level FlightAware Approximate
23:55 19.8025 -82.2222 125° Southeast  Level FlightAware Approximate
23:56 19.7266 -82.1072 125° Southeast  Level FlightAware Approximate
23:57 19.6508 -81.9922 125° Southeast  Level FlightAware Approximate
23:58 19.5757 -81.8767 125° Southeast  Level FlightAware Approximate
23:59 19.5005 -81.7613 125° Southeast  Level FlightAware Approximate
00:00 19.4253 -81.6460 125° Southeast  Level FlightAware Approximate
00:01 19.3500 -81.5308 125° Southeast  Level FlightAware Approximate
00:02 19.2746 -81.4157 125° Southeast  Level FlightAware Approximate
00:03 19.1991 -81.3007 125° Southeast  Level FlightAware Approximate
00:04 19.1236 -81.1859 125° Southeast  Level FlightAware Approximate
00:05 19.0475 -81.0715 125° Southeast  Level FlightAware Approximate
00:06 18.9711 -80.9574 125° Southeast  Level FlightAware Approximate
00:07 18.8946 -80.8434 125° Southeast  Level FlightAware Approximate
00:08 18.8180 -80.7296 125° Southeast  Level FlightAware Approximate
00:09 18.7414 -80.6158 125° Southeast  Level FlightAware Approximate
00:10 18.6646 -80.5021 125° Southeast  Level FlightAware Approximate
00:11 18.5879 -80.3885 125° Southeast  Level FlightAware Approximate
00:12 18.5110 -80.2751 126° Southeast  Level FlightAware Approximate
00:13 18.4341 -80.1617 126° Southeast  Level FlightAware Approximate
00:14 18.3571 -80.0484 126° Southeast  Level FlightAware Approximate
00:15 18.2801 -79.9353 126° Southeast  Level FlightAware Approximate
00:16 18.2030 -79.8222 126° Southeast  Level FlightAware Approximate
00:17 18.1258 -79.7093 126° Southeast  Level FlightAware Approximate
00:18 18.0486 -79.5964 126° Southeast  Level FlightAware Approximate
00:19 17.9713 -79.4836 126° Southeast  Level FlightAware Approximate
00:20 17.8939 -79.3710 126° Southeast  Level FlightAware Approximate
00:21 17.8165 -79.2584 126° Southeast  Level FlightAware Approximate
00:22 17.7390 -79.1459 126° Southeast  Level FlightAware Approximate
00:23 17.6614 -79.0336 126° Southeast  Level FlightAware Approximate
00:24 17.5838 -78.9213 126° Southeast  Level FlightAware Approximate
00:25 17.5061 -78.8091 126° Southeast  Level FlightAware Approximate
00:26 17.4283 -78.6970 126° Southeast  Level FlightAware Approximate
00:27 17.3505 -78.5851 126° Southeast  Level FlightAware Approximate
00:28 17.2726 -78.4732 126° Southeast  Level FlightAware Approximate
00:29 17.1947 -78.3614 126° Southeast  Level FlightAware Approximate
00:30 17.1167 -78.2497 126° Southeast  Level FlightAware Approximate
00:31 17.0386 -78.1380 126° Southeast  Level FlightAware Approximate
00:32 16.9605 -78.0265 126° Southeast  Level FlightAware Approximate
00:33 16.8823 -77.9151 126° Southeast  Level FlightAware Approximate
00:34 16.8040 -77.8038 126° Southeast  Level FlightAware Approximate
00:35 16.7257 -77.6925 126° Southeast  Level FlightAware Approximate
00:36 16.6474 -77.5814 126° Southeast  Level FlightAware Approximate
00:37 16.5689 -77.4703 126° Southeast  Level FlightAware Approximate
00:38 16.4904 -77.3594 126° Southeast  Level FlightAware Approximate
00:39 16.4119 -77.2485 126° Southeast  Level FlightAware Approximate
00:40 16.3333 -77.1377 126° Southeast  Level FlightAware Approximate
00:41 16.2546 -77.0270 126° Southeast  Level FlightAware Approximate
00:42 16.1759 -76.9164 127° Southeast  Level FlightAware Approximate
00:43 16.0972 -76.8059 127° Southeast  Level FlightAware Approximate
00:44 16.0183 -76.6954 127° Southeast  Level FlightAware Approximate
00:45 15.9394 -76.5851 127° Southeast  Level FlightAware Approximate
00:46 15.8605 -76.4748 127° Southeast  Level FlightAware Approximate
00:47 15.7815 -76.3646 127° Southeast  Level FlightAware Approximate
00:48 15.7024 -76.2546 127° Southeast  Level FlightAware Approximate
00:49 15.6233 -76.1446 127° Southeast  Level FlightAware Approximate
00:50 15.5442 -76.0346 127° Southeast  Level FlightAware Approximate
00:51 15.4649 -75.9248 127° Southeast  Level FlightAware Approximate
00:52 15.3857 -75.8151 127° Southeast  Level FlightAware Approximate
00:53 15.3063 -75.7054 127° Southeast  Level FlightAware Approximate
00:54 15.2270 -75.5958 127° Southeast  Level FlightAware Approximate
00:55 15.1475 -75.4863 127° Southeast  Level FlightAware Approximate
00:56 15.0681 -75.3769 127° Southeast  Level FlightAware Approximate
00:57 14.9885 -75.2676 127° Southeast  Level FlightAware Approximate
00:58 14.9088 -75.1585 127° Southeast  Level FlightAware Approximate
00:59 14.8290 -75.0494 127° Southeast  Level FlightAware Approximate
01:00 14.7491 -74.9404 127° Southeast  Level FlightAware Approximate
01:01 14.6692 -74.8316 127° Southeast  Level FlightAware Approximate
01:02 14.5893 -74.7227 127° Southeast  Level FlightAware Approximate
01:03 14.5093 -74.6140 127° Southeast  Level FlightAware Approximate
01:04 14.4292 -74.5054 127° Southeast  Level FlightAware Approximate
01:05 14.3491 -74.3968 127° Southeast  Level FlightAware Approximate
01:06 14.2690 -74.2883 127° Southeast  Level FlightAware Approximate
01:07 14.1888 -74.1799 127° Southeast  Level FlightAware Approximate
01:08 14.0891 -74.0921 144° Southeast  Level FlightAware Approximate
01:09 13.9820 -74.0122 144° Southeast  Level FlightAware Approximate
01:10 13.8749 -73.9324 144° Southeast  Level FlightAware Approximate
01:11 13.7677 -73.8526 144° Southeast  Level FlightAware Approximate
01:12 13.6606 -73.7729 144° Southeast  Level FlightAware Approximate
01:13 13.5534 -73.6933 144° Southeast  Level FlightAware Approximate
01:14 13.4462 -73.6138 144° Southeast  Level FlightAware Approximate
01:15 13.3396 -73.5333 144° Southeast  Level FlightAware Approximate
01:16 13.2330 -73.4530 144° Southeast  Level FlightAware Approximate
01:17 13.1264 -73.3727 144° Southeast  Level FlightAware Approximate
01:18 13.0198 -73.2924 144° Southeast  Level FlightAware Approximate
01:19 12.9132 -73.2123 144° Southeast  Level FlightAware Approximate
01:20 12.8065 -73.1322 144° Southeast  Level FlightAware Approximate
01:21 12.6998 -73.0522 144° Southeast  Level FlightAware Approximate
01:22 12.5931 -72.9722 144° Southeast  Level FlightAware Approximate
01:23 12.4863 -72.8923 144° Southeast  Level FlightAware Approximate
01:24 12.3795 -72.8125 144° Southeast  Level FlightAware Approximate
01:25 12.2727 -72.7327 144° Southeast  Level FlightAware Approximate
01:26 12.1659 -72.6531 144° Southeast  Level FlightAware Approximate
01:27 12.0591 -72.5734 144° Southeast  Level FlightAware Approximate
01:28 11.9520 -72.4941 144° Southeast  Level FlightAware Approximate
01:29 11.8449 -72.4149 144° Southeast  Level FlightAware Approximate
01:30 11.7378 -72.3358 144° Southeast  Level FlightAware Approximate
01:31 11.6306 -72.2568 144° Southeast  Level FlightAware Approximate
01:32 11.5235 -72.1777 144° Southeast  Level FlightAware Approximate
01:33 11.4163 -72.0988 144° Southeast  Level FlightAware Approximate
01:34 11.3089 -72.0202 145° Southeast  Level FlightAware Approximate
01:35 11.2011 -71.9421 145° Southeast  Level FlightAware Approximate
01:36 11.0933 -71.8641 145° Southeast  Level FlightAware Approximate
01:37 10.9855 -71.7861 145° Southeast  Level FlightAware Approximate
01:38 10.8777 -71.7082 145° Southeast  Level FlightAware Approximate
01:39 10.7698 -71.6304 145° Southeast  Level FlightAware Approximate
01:40 10.6620 -71.5526 145° Southeast  Level FlightAware Approximate
01:41 10.5541 -71.4749 145° Southeast  Level FlightAware Approximate
01:42 10.4462 -71.3972 145° Southeast  Level FlightAware Approximate
01:43 10.3383 -71.3196 145° Southeast  Level FlightAware Approximate
01:44 10.2303 -71.2420 145° Southeast  Level FlightAware Approximate
01:45 10.1224 -71.1645 145° Southeast  Level FlightAware Approximate
01:46 10.0144 -71.0870 145° Southeast  Level FlightAware Approximate
01:47 9.9064 -71.0096 145° Southeast  Level FlightAware Approximate
01:48 9.7984 -70.9323 145° Southeast  Level FlightAware Approximate
01:49 9.6903 -70.8549 145° Southeast  Level FlightAware Approximate
01:50 9.5823 -70.7777 145° Southeast  Level FlightAware Approximate
01:51 9.4742 -70.7005 145° Southeast  Level FlightAware Approximate
01:52 9.3661 -70.6233 145° Southeast  Level FlightAware Approximate
01:53 9.2580 -70.5462 145° Southeast  Level FlightAware Approximate
01:54 9.1501 -70.4688 145° Southeast  Level FlightAware Approximate
01:55 9.0423 -70.3913 145° Southeast  Level FlightAware Approximate
01:56 8.9345 -70.3139 145° Southeast  Level FlightAware Approximate
01:57 8.8267 -70.2365 145° Southeast  Level FlightAware Approximate
01:58 8.7188 -70.1591 145° Southeast  Level FlightAware Approximate
01:59 8.6109 -70.0818 145° Southeast  Level FlightAware Approximate
02:00 8.5030 -70.0046 145° Southeast  Level FlightAware Approximate
02:01 8.3952 -69.9274 145° Southeast  Level FlightAware Approximate
02:02 8.2872 -69.8502 145° Southeast  Level FlightAware Approximate
02:03 8.1793 -69.7731 145° Southeast  Level FlightAware Approximate
02:04 8.0714 -69.6960 145° Southeast  Level FlightAware Approximate
02:05 7.9634 -69.6189 145° Southeast  Level FlightAware Approximate
02:06 7.8554 -69.5419 145° Southeast  Level FlightAware Approximate
02:07 7.7474 -69.4650 145° Southeast  Level FlightAware Approximate
02:08 7.6394 -69.3880 145° Southeast  Level FlightAware Approximate
02:09 7.5314 -69.3111 145° Southeast  Level FlightAware Approximate
02:10 7.4234 -69.2343 145° Southeast  Level FlightAware Approximate
02:11 7.3153 -69.1575 145° Southeast  Level FlightAware Approximate
02:12 7.2073 -69.0807 145° Southeast  Level FlightAware Approximate
02:13 7.0992 -69.0040 145° Southeast  Level FlightAware Approximate
02:14 6.9915 -68.9275 145° Southeast  Level FlightAware Approximate
02:15 6.8838 -68.8511 145° Southeast  Level FlightAware Approximate
02:16 6.7761 -68.7747 145° Southeast  Level FlightAware Approximate
02:17 6.6683 -68.6984 145° Southeast  Level FlightAware Approximate
02:18 6.5606 -68.6221 145° Southeast  Level FlightAware Approximate
02:19 6.4528 -68.5458 145° Southeast  Level FlightAware Approximate
02:20 6.3450 -68.4696 145° Southeast  Level FlightAware Approximate
02:21 6.2372 -68.3934 145° Southeast  Level FlightAware Approximate
02:22 6.1294 -68.3172 145° Southeast  Level FlightAware Approximate
02:23 6.0216 -68.2411 145° Southeast  Level FlightAware Approximate
02:24 5.9138 -68.1650 145° Southeast  Level FlightAware Approximate
02:25 5.8060 -68.0889 145° Southeast  Level FlightAware Approximate
02:26 5.6982 -68.0129 145° Southeast  Level FlightAware Approximate
02:27 5.5903 -67.9368 145° Southeast  Level FlightAware Approximate
02:28 5.4824 -67.8608 145° Southeast  Level FlightAware Approximate
02:29 5.3746 -67.7849 145° Southeast  Level FlightAware Approximate
02:30 5.2667 -67.7089 145° Southeast  Level FlightAware Approximate
02:31 5.1588 -67.6330 145° Southeast  Level FlightAware Approximate
02:32 5.0509 -67.5571 145° Southeast  Level FlightAware Approximate
02:33 4.9430 -67.4813 145° Southeast  Level FlightAware Approximate
02:34 4.8351 -67.4054 145° Southeast  Level FlightAware Approximate
02:35 4.7272 -67.3296 145° Southeast  Level FlightAware Approximate
02:36 4.6192 -67.2538 145° Southeast  Level FlightAware Approximate
02:37 4.5113 -67.1781 145° Southeast  Level FlightAware Approximate
02:38 4.4033 -67.1023 145° Southeast  Level FlightAware Approximate
02:39 4.2954 -67.0266 145° Southeast  Level FlightAware Approximate
02:40 4.1874 -66.9509 145° Southeast  Level FlightAware Approximate
02:41 4.0795 -66.8752 145° Southeast  Level FlightAware Approximate
02:42 3.9715 -66.7996 145° Southeast  Level FlightAware Approximate
02:43 3.8635 -66.7239 145° Southeast  Level FlightAware Approximate
02:44 3.7555 -66.6483 145° Southeast  Level FlightAware Approximate
02:45 3.6475 -66.5727 145° Southeast  Level FlightAware Approximate
02:46 3.5395 -66.4971 145° Southeast  Level FlightAware Approximate
02:47 3.4315 -66.4216 145° Southeast  Level FlightAware Approximate
02:48 3.3235 -66.3460 145° Southeast  Level FlightAware Approximate
02:49 3.2155 -66.2705 145° Southeast  Level FlightAware Approximate
02:50 3.1075 -66.1950 145° Southeast  Level FlightAware Approximate
02:51 2.9994 -66.1195 145° Southeast  Level FlightAware Approximate
02:52 2.8914 -66.0440 145° Southeast  Level FlightAware Approximate
02:53 2.7836 -65.9686 145° Southeast  Level FlightAware Approximate
02:54 2.6757 -65.8933 145° Southeast  Level FlightAware Approximate
02:55 2.5678 -65.8180 145° Southeast  Level FlightAware Approximate
02:56 2.4600 -65.7427 145° Southeast  Level FlightAware Approximate
02:57 2.3521 -65.6674 145° Southeast  Level FlightAware Approximate
02:58 2.2442 -65.5921 145° Southeast  Level FlightAware Approximate
02:59 2.1363 -65.5169 145° Southeast  Level FlightAware Approximate
03:00 2.0285 -65.4416 145° Southeast  Level FlightAware Approximate
03:01 1.9206 -65.3664 145° Southeast  Level FlightAware Approximate
03:02 1.8127 -65.2911 145° Southeast  Level FlightAware Approximate
03:03 1.7048 -65.2159 145° Southeast  Level FlightAware Approximate
03:04 1.5969 -65.1407 145° Southeast  Level FlightAware Approximate
03:05 1.4890 -65.0655 145° Southeast  Level FlightAware Approximate
03:06 1.3811 -64.9903 145° Southeast  Level FlightAware Approximate
03:07 1.2732 -64.9151 145° Southeast  Level FlightAware Approximate
03:08 1.1653 -64.8399 145° Southeast  Level FlightAware Approximate
03:09 1.0574 -64.7647 145° Southeast  Level FlightAware Approximate
03:10 0.9495 -64.6895 145° Southeast  Level FlightAware Approximate
03:11 0.8416 -64.6144 145° Southeast  Level FlightAware Approximate
03:12 0.7337 -64.5392 145° Southeast  Level FlightAware Approximate
03:13 0.6258 -64.4640 145° Southeast  Level FlightAware Approximate
03:14 0.5179 -64.3889 145° Southeast  Level FlightAware Approximate
03:15 0.4099 -64.3137 145° Southeast  Level FlightAware Approximate
03:16 0.3020 -64.2385 145° Southeast  Level FlightAware Approximate
03:17 0.1941 -64.1634 145° Southeast  Level FlightAware Approximate
03:18 0.0862 -64.0882 145° Southeast  Level FlightAware Approximate
03:19 -0.0219 -64.0129 145° Southeast  Level FlightAware Approximate
03:20 -0.1300 -63.9376 145° Southeast  Level FlightAware Approximate
03:21 -0.2381 -63.8624 145° Southeast  Level FlightAware Approximate
03:22 -0.3462 -63.7871 145° Southeast  Level FlightAware Approximate
03:23 -0.4543 -63.7118 145° Southeast  Level FlightAware Approximate
03:24 -0.5624 -63.6365 145° Southeast  Level FlightAware Approximate
03:25 -0.6705 -63.5612 145° Southeast  Level FlightAware Approximate
03:26 -0.7786 -63.4859 145° Southeast  Level FlightAware Approximate
03:27 -0.8867 -63.4106 145° Southeast  Level FlightAware Approximate
03:28 -0.9948 -63.3353 145° Southeast  Level FlightAware Approximate
03:29 -1.1029 -63.2600 145° Southeast  Level FlightAware Approximate
03:30 -1.2110 -63.1847 145° Southeast  Level FlightAware Approximate
03:31 -1.3191 -63.1093 145° Southeast  Level FlightAware Approximate
03:32 -1.4272 -63.0340 145° Southeast  Level FlightAware Approximate
03:33 -1.5353 -62.9587 145° Southeast  Level FlightAware Approximate
03:34 -1.6433 -62.8833 145° Southeast  Level FlightAware Approximate
03:35 -1.7514 -62.8080 145° Southeast  Level FlightAware Approximate
03:36 -1.8595 -62.7326 145° Southeast  Level FlightAware Approximate
03:37 -1.9676 -62.6572 145° Southeast  Level FlightAware Approximate
03:38 -2.0756 -62.5819 145° Southeast  Level FlightAware Approximate
03:39 -2.1837 -62.5065 145° Southeast  Level FlightAware Approximate
03:40 -2.2918 -62.4311 145° Southeast  Level FlightAware Approximate
03:41 -2.3998 -62.3557 145° Southeast  Level FlightAware Approximate
03:42 -2.5079 -62.2802 145° Southeast  Level FlightAware Approximate
03:43 -2.6160 -62.2048 145° Southeast  Level FlightAware Approximate
03:44 -2.7240 -62.1293 145° Southeast  Level FlightAware Approximate
03:45 -2.8320 -62.0539 145° Southeast  Level FlightAware Approximate
03:46 -2.9401 -61.9784 145° Southeast  Level FlightAware Approximate
03:47 -3.0481 -61.9029 145° Southeast  Level FlightAware Approximate
03:48 -3.1561 -61.8274 145° Southeast  Level FlightAware Approximate
03:49 -3.2642 -61.7519 145° Southeast  Level FlightAware Approximate
03:50 -3.3722 -61.6763 145° Southeast  Level FlightAware Approximate
03:51 -3.4802 -61.6008 145° Southeast  Level FlightAware Approximate
03:52 -3.5882 -61.5252 145° Southeast  Level FlightAware Approximate
03:53 -3.6962 -61.4496 145° Southeast  Level FlightAware Approximate
03:54 -3.8042 -61.3740 145° Southeast  Level FlightAware Approximate
03:55 -3.9122 -61.2984 145° Southeast  Level FlightAware Approximate
03:56 -4.0202 -61.2227 145° Southeast  Level FlightAware Approximate
03:57 -4.1281 -61.1471 145° Southeast  Level FlightAware Approximate
03:58 -4.2361 -61.0714 145° Southeast  Level FlightAware Approximate
03:59 -4.3440 -60.9957 145° Southeast  Level FlightAware Approximate
04:00 -4.4520 -60.9199 145° Southeast  Level FlightAware Approximate
04:01 -4.5599 -60.8442 145° Southeast  Level FlightAware Approximate
04:02 -4.6679 -60.7684 145° Southeast  Level FlightAware Approximate
04:03 -4.7758 -60.6926 145° Southeast  Level FlightAware Approximate
04:04 -4.8837 -60.6168 145° Southeast  Level FlightAware Approximate
04:05 -4.9916 -60.5409 145° Southeast  Level FlightAware Approximate
04:06 -5.0995 -60.4651 145° Southeast  Level FlightAware Approximate
04:07 -5.2074 -60.3892 145° Southeast  Level FlightAware Approximate
04:08 -5.3153 -60.3133 145° Southeast  Level FlightAware Approximate
04:09 -5.4233 -60.2372 145° Southeast  Level FlightAware Approximate
04:10 -5.5314 -60.1611 145° Southeast  Level FlightAware Approximate
04:11 -5.6394 -60.0849 145° Southeast  Level FlightAware Approximate
04:12 -5.7475 -60.0088 145° Southeast  Level FlightAware Approximate
04:13 -5.8555 -59.9325 145° Southeast  Level FlightAware Approximate
04:14 -5.9635 -59.8563 145° Southeast  Level FlightAware Approximate
04:15 -6.0715 -59.7801 145° Southeast  Level FlightAware Approximate
04:16 -6.1795 -59.7038 145° Southeast  Level FlightAware Approximate
04:17 -6.2875 -59.6274 145° Southeast  Level FlightAware Approximate
04:18 -6.3954 -59.5511 145° Southeast  Level FlightAware Approximate
04:19 -6.5034 -59.4747 145° Southeast  Level FlightAware Approximate
04:20 -6.6114 -59.3983 145° Southeast  Level FlightAware Approximate
04:21 -6.7193 -59.3219 145° Southeast  Level FlightAware Approximate
04:22 -6.8272 -59.2454 145° Southeast  Level FlightAware Approximate
04:23 -6.9351 -59.1689 145° Southeast  Level FlightAware Approximate
04:24 -7.0430 -59.0923 145° Southeast  Level FlightAware Approximate
04:25 -7.1509 -59.0157 145° Southeast  Level FlightAware Approximate
04:26 -7.2588 -58.9391 145° Southeast  Level FlightAware Approximate
04:27 -7.3666 -58.8624 145° Southeast  Level FlightAware Approximate
04:28 -7.4745 -58.7857 145° Southeast  Level FlightAware Approximate
04:29 -7.5823 -58.7090 145° Southeast  Level FlightAware Approximate
04:30 -7.6901 -58.6322 145° Southeast  Level FlightAware Approximate
04:31 -7.7979 -58.5554 145° Southeast  Level FlightAware Approximate
04:32 -7.9057 -58.4786 145° Southeast  Level FlightAware Approximate
04:33 -8.0135 -58.4017 145° Southeast  Level FlightAware Approximate
04:34 -8.1213 -58.3248 145° Southeast  Level FlightAware Approximate
04:35 -8.2290 -58.2478 145° Southeast  Level FlightAware Approximate
04:36 -8.3368 -58.1708 145° Southeast  Level FlightAware Approximate
04:37 -8.4445 -58.0937 145° Southeast  Level FlightAware Approximate
04:38 -8.5524 -58.0165 145° Southeast  Level FlightAware Approximate
04:39 -8.6603 -57.9392 145° Southeast  Level FlightAware Approximate
04:40 -8.7681 -57.8619 145° Southeast  Level FlightAware Approximate
04:41 -8.8760 -57.7845 145° Southeast  Level FlightAware Approximate
04:42 -8.9838 -57.7071 145° Southeast  Level FlightAware Approximate
04:43 -9.0916 -57.6296 145° Southeast  Level FlightAware Approximate
04:44 -9.1994 -57.5521 145° Southeast  Level FlightAware Approximate
04:45 -9.3072 -57.4745 145° Southeast  Level FlightAware Approximate
04:46 -9.4150 -57.3969 145° Southeast  Level FlightAware Approximate
04:47 -9.5227 -57.3193 145° Southeast  Level FlightAware Approximate
04:48 -9.6305 -57.2416 145° Southeast  Level FlightAware Approximate
04:49 -9.7382 -57.1638 145° Southeast  Level FlightAware Approximate
04:50 -9.8459 -57.0860 145° Southeast  Level FlightAware Approximate
04:51 -9.9536 -57.0082 145° Southeast  Level FlightAware Approximate
04:52 -10.0612 -56.9303 145° Southeast  Level FlightAware Approximate
04:53 -10.1688 -56.8523 145° Southeast  Level FlightAware Approximate
04:54 -10.2765 -56.7743 145° Southeast  Level FlightAware Approximate
04:55 -10.3841 -56.6963 144° Southeast  Level FlightAware Approximate
04:56 -10.4917 -56.6182 144° Southeast  Level FlightAware Approximate
04:57 -10.5992 -56.5400 144° Southeast  Level FlightAware Approximate
04:58 -10.7068 -56.4618 144° Southeast  Level FlightAware Approximate
04:59 -10.8143 -56.3835 144° Southeast  Level FlightAware Approximate
05:00 -10.9218 -56.3052 144° Southeast  Level FlightAware Approximate
05:01 -11.0293 -56.2268 144° Southeast  Level FlightAware Approximate
05:02 -11.1368 -56.1483 144° Southeast  Level FlightAware Approximate
05:03 -11.2442 -56.0698 144° Southeast  Level FlightAware Approximate
05:04 -11.3517 -55.9912 144° Southeast  Level FlightAware Approximate
05:05 -11.4591 -55.9126 144° Southeast  Level FlightAware Approximate
05:06 -11.5665 -55.8340 144° Southeast  Level FlightAware Approximate
05:07 -11.6738 -55.7552 144° Southeast  Level FlightAware Approximate
05:08 -11.7812 -55.6764 144° Southeast  Level FlightAware Approximate
05:09 -11.8885 -55.5975 144° Southeast  Level FlightAware Approximate
05:10 -11.9958 -55.5186 144° Southeast  Level FlightAware Approximate
05:11 -12.1031 -55.4396 144° Southeast  Level FlightAware Approximate
05:12 -12.2103 -55.3605 144° Southeast  Level FlightAware Approximate
05:13 -12.3176 -55.2814 144° Southeast  Level FlightAware Approximate
05:14 -12.4248 -55.2023 144° Southeast  Level FlightAware Approximate
05:15 -12.5320 -55.1230 144° Southeast  Level FlightAware Approximate
05:16 -12.6391 -55.0437 144° Southeast  Level FlightAware Approximate
05:17 -12.7463 -54.9643 144° Southeast  Level FlightAware Approximate
05:18 -12.8534 -54.8848 144° Southeast  Level FlightAware Approximate
05:19 -12.9605 -54.8053 144° Southeast  Level FlightAware Approximate
05:20 -13.0675 -54.7257 144° Southeast  Level FlightAware Approximate
05:21 -13.1746 -54.6461 144° Southeast  Level FlightAware Approximate
05:22 -13.2816 -54.5664 144° Southeast  Level FlightAware Approximate
05:23 -13.3886 -54.4866 144° Southeast  Level FlightAware Approximate
05:24 -13.4956 -54.4067 144° Southeast  Level FlightAware Approximate
05:25 -13.6025 -54.3268 144° Southeast  Level FlightAware Approximate
05:26 -13.7094 -54.2467 144° Southeast  Level FlightAware Approximate
05:27 -13.8163 -54.1667 144° Southeast  Level FlightAware Approximate
05:28 -13.9232 -54.0865 144° Southeast  Level FlightAware Approximate
05:29 -14.0301 -54.0063 144° Southeast  Level FlightAware Approximate
05:30 -14.1369 -53.9260 144° Southeast  Level FlightAware Approximate
05:31 -14.2438 -53.8454 144° Southeast  Level FlightAware Approximate
05:32 -14.3508 -53.7648 144° Southeast  Level FlightAware Approximate
05:33 -14.4577 -53.6842 144° Southeast  Level FlightAware Approximate
05:34 -14.5646 -53.6034 144° Southeast  Level FlightAware Approximate
05:35 -14.6715 -53.5226 144° Southeast  Level FlightAware Approximate
05:36 -14.7783 -53.4417 144° Southeast  Level FlightAware Approximate
05:37 -14.8851 -53.3607 144° Southeast  Level FlightAware Approximate
05:38 -14.9919 -53.2796 144° Southeast  Level FlightAware Approximate
05:39 -15.0987 -53.1985 144° Southeast  Level FlightAware Approximate
05:40 -15.2054 -53.1172 144° Southeast  Level FlightAware Approximate
05:41 -15.3121 -53.0359 144° Southeast  Level FlightAware Approximate
05:42 -15.4187 -52.9545 144° Southeast  Level FlightAware Approximate
05:43 -15.5254 -52.8730 144° Southeast  Level FlightAware Approximate
05:44 -15.6320 -52.7915 144° Southeast  Level FlightAware Approximate
05:45 -15.7386 -52.7098 144° Southeast  Level FlightAware Approximate
05:46 -15.8451 -52.6281 144° Southeast  Level FlightAware Approximate
05:47 -15.9516 -52.5463 144° Southeast  Level FlightAware Approximate
05:48 -16.0581 -52.4644 144° Southeast  Level FlightAware Approximate
05:49 -16.1646 -52.3824 144° Southeast  Level FlightAware Approximate
05:50 -16.2710 -52.3003 143° Southeast  Level FlightAware Approximate
05:51 -16.3774 -52.2181 143° Southeast  Level FlightAware Approximate
05:52 -16.4837 -52.1358 143° Southeast  Level FlightAware Approximate
05:53 -16.5901 -52.0535 143° Southeast  Level FlightAware Approximate
05:53 -18.4510 -50.3210 143° Southeast 482 555 37,000  Level FlightAware
05:54 -16.6964 -51.9710 143° Southeast  Level FlightAware Approximate
05:54 -18.5540 -50.2380 143° Southeast 482 555 37,000  Level FlightAware
05:55 -18.6130 -50.1890 142° Southeast 482 555 37,000  Level FlightAware
05:55 -18.6730 -50.1390 142° Southeast 482 555 37,000  Level FlightAware
05:58 -18.9131 -49.9606 145° Southeast  Level Estimated
05:59 -19.0214 -49.8799 145° Southeast  Level Estimated
05:59 -19.1430 -49.7610 145° Southeast 481 554 37,000  Level FlightAware
06:00 -19.2170 -49.6990 142° Southeast 482 555 37,000  Level FlightAware
06:01 -19.2850 -49.6410 141° Southeast 481 554 37,000  Level FlightAware
06:01 -19.3270 -49.6060 142° Southeast 37,000  Level FlightAware
06:02 -19.3730 -49.5680 142° Southeast 482 555 37,000  Level FlightAware
06:03 -19.4530 -49.5000 141° Southeast 483 556 37,000  Level FlightAware
06:03 -19.5220 -49.4420 142° Southeast 484 557 37,000  Level FlightAware
06:04 -19.6030 -49.3740 142° Southeast 484 557 37,000  Level FlightAware
06:05 -19.6710 -49.3160 141° Southeast 485 558 37,000  Level FlightAware
06:05 -19.7520 -49.2480 142° Southeast 486 559 37,000  Level FlightAware
06:06 -19.8120 -49.1970 141° Southeast 486 559 37,000  Level FlightAware
06:07 -19.8940 -49.1270 141° Southeast 486 559 37,000  Level FlightAware
06:08 -19.9670 -49.0660 142° Southeast 487 560 37,000  Level FlightAware
06:08 -20.0440 -49.0000 141° Southeast 487 560 37,000  Level FlightAware
06:09 -20.1120 -48.9430 142° Southeast 488 562 37,000  Level FlightAware
06:10 -20.1910 -48.8750 141° Southeast 489 563 37,000  Level FlightAware
06:10 -20.2650 -48.8120 141° Southeast 489 563 37,000  Level FlightAware
06:11 -20.3420 -48.7540 145° Southeast 488 562 37,000  Level FlightAware
06:12 -20.4230 -48.7090 152° Southeast 487 560 37,000  Level FlightAware
06:12 -20.5110 -48.6630 154° Southeast 487 560 37,000  Level FlightAware
06:13 -20.6000 -48.6150 153° Southeast 488 562 37,000  Level FlightAware
06:14 -20.7140 -48.5540 153° Southeast 488 562 37,000  Level FlightAware
06:15 -20.8090 -48.5030 153° Southeast 487 560 37,000  Level FlightAware
06:15 -20.8900 -48.4600 154° Southeast 487 560 37,000  Level FlightAware
06:16 -20.9780 -48.4120 153° Southeast 489 563 37,000  Level FlightAware
06:17 -21.0540 -48.3570 146° Southeast 493 567 37,000  Level FlightAware
06:17 -21.1270 -48.2980 143° Southeast 495 570 37,000  Level FlightAware
06:18 -21.2100 -48.2300 143° Southeast 496 571 37,000  Level FlightAware
06:19 -21.2840 -48.1690 142° Southeast 496 571 37,000  Level FlightAware
06:19 -21.3550 -48.1120 143° Southeast 498 573 37,000  Level FlightAware
06:20 -21.4400 -48.0420 143° Southeast 498 573 37,000  Level FlightAware
06:21 -21.5120 -47.9830 143° Southeast 500 575 37,000  Level FlightAware
06:22 -21.5950 -47.9150 143° Southeast 501 577 37,000  Level FlightAware
06:22 -21.6690 -47.8540 143° Southeast 501 577 37,000  Level FlightAware
06:23 -21.7410 -47.7940 142° Southeast 503 579 37,000 -180 Level FlightAware
06:24 -21.8160 -47.7320 142° Southeast 496 571 36,800 -900 Descending FlightAware
06:24 -21.8990 -47.6640 143° Southeast 500 575 35,800 -1,500 Descending FlightAware
06:25 -21.9720 -47.6030 142° Southeast 496 571 34,700 -2,340 Descending FlightAware
06:26 -22.0520 -47.5360 142° Southeast 502 578 32,500 -3,060 Descending FlightAware
06:26 -22.1270 -47.4740 143° Southeast 507 583 30,400 -2,880 Descending FlightAware
06:27 -22.2110 -47.4040 142° Southeast 496 571 28,500 -2,400 Descending FlightAware
06:28 -22.2720 -47.3530 142° Southeast 487 560 27,200 -2,340 Descending FlightAware
06:29 -22.4050 -47.2420 142° Southeast 471 542 24,300 -2,400 Descending FlightAware
06:30 -22.4720 -47.1850 142° Southeast 456 525 22,700 -2,340 Descending FlightAware
06:30 -22.5470 -47.1230 143° Southeast 447 514 21,000 -2,220 Descending FlightAware
06:31 -22.6210 -47.0790 151° Southeast 432 497 19,600 -2,100 Descending FlightAware
06:32 -22.7040 -47.0440 159° South 413 475 18,100 -2,340 Descending FlightAware
06:32 -22.7770 -47.0140 159° South 398 458 16,300 -2,220 Descending FlightAware
06:33 -22.8420 -46.9870 159° South 376 433 15,200 -1,440 Descending FlightAware
06:34 -22.9060 -46.9600 159° South 350 403 14,400 -1,560 Descending FlightAware
06:35 -22.9730 -46.9310 158° South 316 364 13,000 -1,680 Descending FlightAware
06:36 -23.0990 -46.8790 143° Southeast 260 299 10,300 -1,380 Descending FlightAware
06:37 -23.1408 -46.7104 143° Southeast  Level FlightAware Approximate
06:38 -23.1830 -46.8430 158° South 259 298 9,000  Level FlightAware
06:40 -23.3361 -46.6137 145° Southeast  Level Estimated
06:40 -23.3400 -46.7760 145° Southeast 209 241 7,100  Level FlightAware
06:41 -23.4040 -46.7340 149° Southeast 214 246 6,200 -840 Descending FlightAware
06:42 -23.4540 -46.6790 135° Southeast 212 244 5,200 -780 Descending FlightAware
06:44 -23.4730 -46.6130 107° East 190 219 4,500 -600 Descending FlightAware
06:46 -23.4321 -46.4695 73° East  Level Estimated
06:47 -23.4321 -46.4695 350° North  Level Estimated
06:48 -23.4321 -46.4695 350° North  Level Estimated